CSN7701 VQPR-VNKT

Flight info

Callsign CSN7701
Flight time 0h 48m
Altitude 30000
Route PRO G348 KIMTI KMTI1G
Aircraft A319/M-SDE3FGHIRWY/LB1

Departure

Time 2026-05-08 01:57
Airport Paro International Airport (VQPR)

Arrival

Time 2026-05-08 02:45
Airport Tribhuvan International Airport (VNKT)
Time Latitude Longitude Altitude Speed Heading
2026-05-08 01:28 27.40598 89.42122 7355 ft 0 kts 240°
2026-05-08 01:33 27.40598 89.42123 7355 ft 0 kts 240°
2026-05-08 01:51 27.40609 89.42146 7357 ft 4 kts 250°
2026-05-08 01:51 27.40614 89.42175 7358 ft 4 kts 292°
2026-05-08 01:51 27.40606 89.42187 7357 ft 1 kts 330°
2026-05-08 01:53 27.40616 89.42181 7356 ft 6 kts 330°
2026-05-08 01:53 27.40669 89.42148 7357 ft 9 kts 330°
2026-05-08 01:54 27.40723 89.42113 7360 ft 11 kts 330°
2026-05-08 01:54 27.40805 89.42072 7361 ft 12 kts
2026-05-08 01:54 27.40862 89.42123 7363 ft 10 kts
2026-05-08 01:54 27.40925 89.42088 7365 ft 10 kts 330°
2026-05-08 01:55 27.41008 89.42035 7367 ft 18 kts 330°
2026-05-08 01:55 27.41116 89.41967 7370 ft 18 kts 330°
2026-05-08 01:55 27.41198 89.41891 7372 ft 10 kts 359°
2026-05-08 01:55 27.41191 89.41923 7372 ft 8 kts 166°
2026-05-08 01:56 27.41163 89.41938 7372 ft 0 kts 149°
2026-05-08 01:56 27.41146 89.41948 7370 ft 9 kts 150°
2026-05-08 01:56 27.40861 89.42130 7363 ft 87 kts 150°
2026-05-08 01:56 27.40128 89.42596 7337 ft 153 kts 150°
2026-05-08 01:57 27.39117 89.43239 7831 ft 166 kts 150°
2026-05-08 01:57 27.38125 89.43904 8644 ft 169 kts 146°
2026-05-08 01:57 27.37122 89.44727 9112 ft 185 kts 144°
2026-05-08 01:57 27.36053 89.45559 9560 ft 188 kts 146°
2026-05-08 01:58 27.34981 89.46418 9981 ft 194 kts 140°
2026-05-08 01:58 27.34041 89.47563 10454 ft 204 kts 124°
2026-05-08 01:58 27.33430 89.49024 10921 ft 212 kts 106°
2026-05-08 01:58 27.33187 89.50698 11392 ft 222 kts 96°
2026-05-08 01:59 27.32991 89.52464 11899 ft 232 kts 97°
2026-05-08 01:59 27.33035 89.54244 12786 ft 224 kts 86°
2026-05-08 01:59 27.32995 89.55990 13560 ft 222 kts 98°
2026-05-08 01:59 27.32611 89.57662 14275 ft 221 kts 112°
2026-05-08 02:00 27.31874 89.59166 14900 ft 220 kts 128°
2026-05-08 02:00 27.30736 89.60303 15436 ft 223 kts 154°
2026-05-08 02:00 27.29179 89.60760 15616 ft 245 kts 180°
2026-05-08 02:00 27.27459 89.60326 15663 ft 264 kts 208°
2026-05-08 02:01 27.26018 89.58962 15771 ft 276 kts 233°
2026-05-08 02:01 27.24891 89.57166 15906 ft 295 kts 232°
2026-05-08 02:01 27.23514 89.55328 16184 ft 320 kts 230°
2026-05-08 02:01 27.22003 89.53368 16448 ft 343 kts 230°
2026-05-08 02:02 27.20684 89.51059 16837 ft 359 kts 247°
2026-05-08 02:02 27.20196 89.49687 17165 ft 363 kts 249°
2026-05-08 02:02 27.19780 89.48495 17522 ft 364 kts 249°
2026-05-08 02:02 27.18857 89.45836 18355 ft 366 kts 249°
2026-05-08 02:03 27.17934 89.43160 19072 ft 369 kts 249°
2026-05-08 02:03 27.17006 89.40460 19753 ft 372 kts 249°
2026-05-08 02:03 27.16073 89.37740 20447 ft 375 kts 249°
2026-05-08 02:03 27.15127 89.34992 21138 ft 378 kts 249°
2026-05-08 02:04 27.14170 89.32226 21805 ft 382 kts 249°
2026-05-08 02:04 27.13517 89.30343 22290 ft 384 kts 249°
2026-05-08 02:04 27.12545 89.27543 22959 ft 387 kts 249°
2026-05-08 02:04 27.11563 89.24718 23574 ft 390 kts 249°
2026-05-08 02:05 27.10571 89.21870 24116 ft 393 kts 248°
2026-05-08 02:05 27.09574 89.19008 24716 ft 394 kts 249°
2026-05-08 02:05 27.08575 89.16137 25281 ft 396 kts 249°
2026-05-08 02:05 27.07572 89.13255 25837 ft 397 kts 248°
2026-05-08 02:06 27.06566 89.10364 26408 ft 398 kts 248°
2026-05-08 02:06 27.05558 89.07460 26949 ft 401 kts 249°
2026-05-08 02:06 27.04543 89.04541 27486 ft 403 kts 248°
2026-05-08 02:06 27.03518 89.01612 28011 ft 405 kts 248°
2026-05-08 02:07 27.02497 88.98694 28564 ft 407 kts 248°
2026-05-08 02:07 27.01452 88.95707 29090 ft 409 kts 248°
2026-05-08 02:07 27.00410 88.92734 29606 ft 410 kts 248°
2026-05-08 02:07 26.99363 88.89750 29952 ft 412 kts 248°
2026-05-08 02:08 26.96927 88.84049 30030 ft 402 kts 239°
2026-05-08 02:08 26.94026 88.78725 30023 ft 400 kts 239°
2026-05-08 02:09 26.91112 88.73373 30012 ft 400 kts 239°
2026-05-08 02:09 26.88215 88.68057 29998 ft 399 kts 239°
2026-05-08 02:10 26.85322 88.62748 29991 ft 399 kts 239°
2026-05-08 02:10 26.82431 88.57446 29989 ft 399 kts 239°
2026-05-08 02:11 26.79538 88.52152 29987 ft 398 kts 239°
2026-05-08 02:11 26.76653 88.46861 29989 ft 398 kts 239°
2026-05-08 02:12 26.73753 88.41584 29996 ft 398 kts 238°
2026-05-08 02:12 26.71249 88.36094 29992 ft 398 kts 253°
2026-05-08 02:13 26.70827 88.33026 29994 ft 402 kts 266°
2026-05-08 02:13 26.71093 88.29905 29988 ft 408 kts 278°
2026-05-08 02:13 26.72051 88.26894 29994 ft 416 kts 292°
2026-05-08 02:13 26.73539 88.24095 29990 ft 420 kts 296°
2026-05-08 02:14 26.76617 88.18542 29984 ft 420 kts 296°
2026-05-08 02:14 26.79738 88.12957 29991 ft 420 kts 296°
2026-05-08 02:15 26.82860 88.07411 29997 ft 421 kts 296°
2026-05-08 02:15 26.85980 88.01858 30005 ft 422 kts 296°
2026-05-08 02:16 26.89091 87.96282 30024 ft 422 kts 296°
2026-05-08 02:16 26.92203 87.90713 30037 ft 422 kts 296°
2026-05-08 02:17 26.95315 87.85141 30038 ft 422 kts 296°
2026-05-08 02:17 26.98423 87.79567 30044 ft 422 kts 296°
2026-05-08 02:18 27.01526 87.73987 30050 ft 422 kts 296°
2026-05-08 02:18 27.04652 87.68368 30051 ft 421 kts 296°
2026-05-08 02:19 27.07761 87.62779 30060 ft 422 kts 296°
2026-05-08 02:19 27.10864 87.57182 30063 ft 422 kts 296°
2026-05-08 02:20 27.13962 87.51592 30074 ft 422 kts 296°
2026-05-08 02:20 27.17057 87.45991 30071 ft 422 kts 296°
2026-05-08 02:21 27.20151 87.40388 30077 ft 422 kts 296°
2026-05-08 02:21 27.23247 87.34783 30085 ft 422 kts 297°
2026-05-08 02:22 27.26340 87.29175 30094 ft 423 kts 296°
2026-05-08 02:22 27.29432 87.23552 30085 ft 422 kts 296°
2026-05-08 02:23 27.31963 87.17674 30097 ft 414 kts 282°
2026-05-08 02:23 27.33243 87.11400 30103 ft 411 kts 278°
2026-05-08 02:24 27.34481 87.05108 30103 ft 413 kts 278°
2026-05-08 02:24 27.35729 86.98761 30121 ft 414 kts 278°
2026-05-08 02:25 27.36976 86.92427 30128 ft 414 kts 278°
2026-05-08 02:25 27.38215 86.86097 30139 ft 414 kts 279°
2026-05-08 02:26 27.39449 86.79767 30142 ft 414 kts 278°
2026-05-08 02:26 27.40682 86.73430 30144 ft 415 kts 278°
2026-05-08 02:27 27.41300 86.70253 29893 ft 416 kts 278°
2026-05-08 02:27 27.41920 86.67073 29617 ft 416 kts 279°
2026-05-08 02:27 27.42539 86.63897 29354 ft 416 kts 279°
2026-05-08 02:27 27.43157 86.60704 29090 ft 418 kts 279°
2026-05-08 02:28 27.43773 86.57502 28832 ft 420 kts 278°
2026-05-08 02:28 27.44392 86.54288 28566 ft 421 kts 279°
2026-05-08 02:28 27.45012 86.51068 28304 ft 422 kts 279°
2026-05-08 02:28 27.45632 86.47837 28047 ft 423 kts 279°
2026-05-08 02:29 27.46255 86.44594 27795 ft 424 kts 279°
2026-05-08 02:29 27.46880 86.41352 27546 ft 424 kts 279°
2026-05-08 02:29 27.47505 86.38116 27113 ft 420 kts 279°
2026-05-08 02:29 27.48129 86.34872 26423 ft 417 kts 279°
2026-05-08 02:30 27.48730 86.31727 25761 ft 414 kts 279°
2026-05-08 02:30 27.49339 86.28529 25097 ft 411 kts 280°
2026-05-08 02:30 27.49905 86.25389 24437 ft 408 kts 278°
2026-05-08 02:30 27.50356 86.22247 23807 ft 405 kts 276°
2026-05-08 02:31 27.50722 86.19109 23122 ft 403 kts 275°
2026-05-08 02:31 27.51047 86.15993 22533 ft 398 kts 275°
2026-05-08 02:31 27.51365 86.12905 21995 ft 395 kts 275°
2026-05-08 02:31 27.51693 86.09841 21451 ft 393 kts 276°
2026-05-08 02:32 27.52035 86.06794 20938 ft 392 kts 276°
2026-05-08 02:32 27.52387 86.03761 20423 ft 389 kts 276°
2026-05-08 02:32 27.52745 86.00753 19916 ft 386 kts 277°
2026-05-08 02:32 27.53104 85.97760 19439 ft 385 kts 277°
2026-05-08 02:33 27.53457 85.94820 19302 ft 372 kts 277°
2026-05-08 02:33 27.53795 85.91980 19183 ft 359 kts 277°
2026-05-08 02:33 27.54116 85.89243 19055 ft 347 kts 277°
2026-05-08 02:33 27.54425 85.86589 18901 ft 337 kts 277°
2026-05-08 02:34 27.54828 85.84014 18686 ft 332 kts 284°
2026-05-08 02:34 27.55433 85.81761 18115 ft 339 kts 287°
2026-05-08 02:34 27.56134 85.79240 17836 ft 334 kts 287°
2026-05-08 02:34 27.56832 85.76754 17470 ft 332 kts 287°
2026-05-08 02:35 27.57525 85.74283 17113 ft 329 kts 287°
2026-05-08 02:35 27.58209 85.71832 16757 ft 325 kts 287°
2026-05-08 02:35 27.58879 85.69423 16416 ft 319 kts 287°
2026-05-08 02:35 27.59535 85.67051 16075 ft 314 kts 287°
2026-05-08 02:36 27.60182 85.64719 15739 ft 310 kts 287°
2026-05-08 02:36 27.60615 85.63157 15516 ft 307 kts 287°
2026-05-08 02:36 27.61248 85.60879 15182 ft 303 kts 287°
2026-05-08 02:36 27.61875 85.58626 14852 ft 299 kts 287°
2026-05-08 02:37 27.62491 85.56403 14528 ft 294 kts 287°
2026-05-08 02:37 27.63093 85.54232 14278 ft 286 kts 287°
2026-05-08 02:37 27.63678 85.52119 14049 ft 279 kts 287°
2026-05-08 02:37 27.64250 85.50060 13808 ft 272 kts 287°
2026-05-08 02:38 27.64810 85.48044 13549 ft 266 kts 287°
2026-05-08 02:38 27.65470 85.46126 13294 ft 259 kts 294°
2026-05-08 02:38 27.66278 85.44338 13041 ft 253 kts 298°
2026-05-08 02:38 27.67096 85.42601 12760 ft 249 kts 297°
2026-05-08 02:39 27.67902 85.40889 12459 ft 245 kts 298°
2026-05-08 02:39 27.68692 85.39207 12158 ft 241 kts 298°
2026-05-08 02:39 27.69469 85.37550 11861 ft 237 kts 298°
2026-05-08 02:39 27.70230 85.35926 11561 ft 229 kts 298°
2026-05-08 02:40 27.70959 85.34371 11230 ft 220 kts 298°
2026-05-08 02:40 27.71666 85.32866 10878 ft 214 kts 298°
2026-05-08 02:40 27.72187 85.31334 10473 ft 207 kts 281°
2026-05-08 02:40 27.72181 85.29684 9881 ft 210 kts 258°
2026-05-08 02:41 27.71631 85.28160 9260 ft 211 kts 236°
2026-05-08 02:41 27.70638 85.26977 8668 ft 211 kts 215°
2026-05-08 02:41 27.69303 85.26261 8068 ft 211 kts 194°
2026-05-08 02:41 27.67853 85.26138 7496 ft 209 kts 174°
2026-05-08 02:42 27.66440 85.26322 7087 ft 200 kts 172°
2026-05-08 02:42 27.65142 85.26802 6635 ft 196 kts 151°
2026-05-08 02:42 27.64011 85.27657 6179 ft 194 kts 146°
2026-05-08 02:42 27.62942 85.28500 5894 ft 182 kts 135°
2026-05-08 02:43 27.62400 85.29697 5762 ft 166 kts 97°
2026-05-08 02:43 27.62615 85.30888 5650 ft 149 kts 60°
2026-05-08 02:43 27.63281 85.31732 5497 ft 141 kts 48°
2026-05-08 02:43 27.63936 85.32534 5289 ft 137 kts 47°
2026-05-08 02:44 27.64619 85.33280 5118 ft 137 kts 40°
2026-05-08 02:44 27.65435 85.33818 4937 ft 136 kts 27°
2026-05-08 02:44 27.66251 85.34351 4818 ft 136 kts 26°
2026-05-08 02:44 27.67124 85.34754 4679 ft 136 kts 22°
2026-05-08 02:45 27.67994 85.35161 4481 ft 135 kts 22°
2026-05-08 02:45 27.68844 85.35547 4395 ft 120 kts 22°
2026-05-08 02:45 27.69491 85.35842 4394 ft 76 kts 22°
2026-05-08 02:45 27.69825 85.35993 4393 ft 31 kts 22°
2026-05-08 02:46 27.70020 85.36083 4391 ft 30 kts 22°
2026-05-08 02:46 27.70166 85.36120 4393 ft 15 kts 335°
2026-05-08 02:46 27.70169 85.36031 4392 ft 16 kts 203°
2026-05-08 02:46 27.70070 85.35981 4391 ft 11 kts 225°
2026-05-08 02:47 27.70083 85.35916 4391 ft 8 kts 292°
2026-05-08 02:47 27.70092 85.35890 4391 ft 1 kts 291°
2026-05-08 02:47 27.70094 85.35885 4391 ft 0 kts 291°